QPF
0.01 0.00 0.00 0.00 0.00 0.00 0.00 0.00 0.00 0.00 0.00 0.00 0.00 0.00 0.00 0.00 0.00 0.00 0.00 0.00 0.00 0.00 0.01 0.02 0.03 0.04 0.04 0.03 0.03 0.02 0.01 0.02 0.02 0.02 0.02 0.02 0.02 0.01 0.01 0.01 0.02 0.01 0.01 0.01 0.01 0.01 0.01 0.01 0.01
0.00 0.00 0.00 0.00 0.00 0.00 0.00 0.00 0.00 0.00 0.00 0.00 0.00 0.00 0.00 0.00 0.00 0.00 0.00 0.00 0.00 0.00 0.01 0.03 0.04 0.04 0.04 0.03 0.03 0.03 0.02 0.02 0.02 0.02 0.02 0.02 0.01 0.01 0.01 0.02 0.03 0.01 0.01 0.01 0.01 0.00 0.00 0.00 0.01
0.01 0.00 0.00 0.00 0.00 0.00 0.00 0.00 0.00 0.00 0.00 0.00 0.00 0.00 0.00 0.00 0.00 0.00 0.00 0.00 0.00 0.01 0.02 0.02 0.04 0.05 0.05 0.04 0.03 0.03 0.03 0.03 0.02 0.02 0.02 0.01 0.01 0.01 0.01 0.03 0.02 0.01 0.01 0.01 0.01 0.01 0.01 0.00 0.00
0.02 0.01 0.00 0.00 0.00 0.00 0.00 0.00 0.00 0.00 0.00 0.00 0.00 0.00 0.00 0.00 0.00 0.00 0.00 0.00 0.01 0.02 0.03 0.02 0.03 0.05 0.05 0.05 0.05 0.04 0.03 0.03 0.02 0.02 0.03 0.02 0.01 0.01 0.02 0.02 0.02 0.01 0.01 0.00 0.00 0.01 0.01 0.00 0.00
0.02 0.02 0.01 0.00 0.00 0.00 0.00 0.00 0.00 0.00 0.00 0.00 0.00 0.00 0.00 0.00 0.00 0.00 0.00 0.01 0.01 0.02 0.03 0.03 0.04 0.04 0.04 0.04 0.05 0.05 0.05 0.04 0.03 0.02 0.02 0.03 0.02 0.02 0.03 0.02 0.02 0.01 0.01 0.01 0.01 0.01 0.01 0.00 0.00
0.03 0.02 0.01 0.00 0.00 0.00 0.00 0.00 0.00 0.00 0.00 0.00 0.00 0.00 0.00 0.00 0.00 0.00 0.01 0.02 0.02 0.02 0.02 0.03 0.03 0.04 0.05 0.05 0.04 0.05 0.05 0.05 0.04 0.03 0.03 0.03 0.03 0.02 0.02 0.02 0.02 0.01 0.01 0.01 0.01 0.01 0.01 0.01 0.00
0.03 0.02 0.01 0.00 0.00 0.00 0.00 0.00 0.00 0.00 0.00 0.00 0.00 0.00 0.00 0.00 0.01 0.01 0.01 0.02 0.03 0.03 0.04 0.05 0.04 0.03 0.04 0.04 0.03 0.03 0.03 0.04 0.05 0.04 0.04 0.03 0.02 0.02 0.01 0.01 0.01 0.01 0.01 0.01 0.01 0.01 0.01 0.01 0.01
0.05 0.02 0.01 0.00 0.00 0.00 0.00 0.00 0.00 0.00 0.00 0.00 0.00 0.00 0.00 0.01 0.01 0.01 0.02 0.02 0.03 0.03 0.04 0.06 0.06 0.04 0.03 0.04 0.03 0.02 0.02 0.02 0.03 0.04 0.04 0.03 0.02 0.02 0.01 0.01 0.01 0.01 0.02 0.02 0.01 0.01 0.02 0.01 0.01
0.07 0.03 0.01 0.00 0.00 0.00 0.00 0.00 0.00 0.00 0.00 0.00 0.00 0.00 0.00 0.00 0.01 0.01 0.02 0.02 0.02 0.02 0.03 0.04 0.05 0.05 0.05 0.04 0.04 0.03 0.03 0.02 0.02 0.02 0.03 0.04 0.04 0.02 0.01 0.00 0.00 0.01 0.01 0.02 0.02 0.01 0.01 0.01 0.01
0.07 0.05 0.02 0.00 0.00 0.00 0.00 0.00 0.00 0.00 0.00 0.00 0.00 0.00 0.00 0.01 0.01 0.01 0.01 0.02 0.02 0.01 0.02 0.02 0.04 0.05 0.05 0.05 0.05 0.05 0.04 0.04 0.03 0.02 0.03 0.04 0.05 0.04 0.01 0.01 0.00 0.00 0.01 0.01 0.02 0.02 0.01 0.01 0.01
0.05 0.04 0.02 0.01 0.00 0.00 0.00 0.00 0.00 0.00 0.01 0.00 0.00 0.00 0.01 0.01 0.01 0.01 0.01 0.01 0.01 0.01 0.01 0.01 0.01 0.04 0.05 0.06 0.06 0.07 0.05 0.05 0.05 0.04 0.02 0.03 0.04 0.05 0.03 0.02 0.01 0.01 0.01 0.02 0.02 0.03 0.02 0.02 0.02
0.04 0.02 0.02 0.02 0.01 0.00 0.00 0.00 0.00 0.00 0.00 0.00 0.01 0.00 0.00 0.00 0.00 0.00 0.00 0.00 0.00 0.00 0.00 0.00 0.01 0.01 0.03 0.05 0.06 0.07 0.06 0.05 0.05 0.05 0.03 0.03 0.03 0.03 0.03 0.03 0.02 0.02 0.02 0.02 0.02 0.02 0.02 0.01 0.02
0.03 0.01 0.01 0.02 0.01 0.01 0.00 0.00 0.00 0.00 0.00 0.00 0.00 0.00 0.00 0.00 0.00 0.00 0.00 0.00 0.00 0.00 0.00 0.00 0.00 0.00 0.01 0.03 0.04 0.06 0.07 0.06 0.05 0.05 0.04 0.03 0.03 0.02 0.02 0.03 0.03 0.03 0.03 0.02 0.02 0.02 0.02 0.02 0.02
0.02 0.01 0.01 0.01 0.01 0.01 0.00 0.00 0.00 0.00 0.00 0.00 0.00 0.00 0.00 0.00 0.00 0.00 0.00 0.00 0.00 0.00 0.00 0.00 0.00 0.00 0.00 0.01 0.01 0.03 0.03 0.06 0.07 0.06 0.04 0.04 0.02 0.02 0.02 0.03 0.03 0.03 0.02 0.02 0.02 0.02 0.02 0.02 0.02
0.01 0.00 0.01 0.01 0.01 0.01 0.01 0.01 0.00 0.00 0.00 0.00 0.00 0.00 0.00 0.00 0.00 0.00 0.00 0.00 0.00 0.00 0.00 0.00 0.00 0.00 0.00 0.00 0.01 0.01 0.02 0.03 0.05 0.06 0.05 0.03 0.02 0.02 0.03 0.03 0.02 0.02 0.02 0.02 0.02 0.02 0.02 0.02 0.02
0.01 0.01 0.01 0.01 0.01 0.01 0.01 0.01 0.00 0.00 0.00 0.00 0.00 0.00 0.00 0.00 0.00 0.00 0.00 0.00 0.00 0.00 0.00 0.00 0.00 0.00 0.00 0.00 0.00 0.01 0.01 0.02 0.03 0.05 0.05 0.05 0.04 0.04 0.03 0.03 0.02 0.02 0.03 0.03 0.03 0.03 0.03 0.03 0.02
0.01 0.01 0.01 0.01 0.01 0.01 0.01 0.01 0.00 0.00 0.00 0.00 0.00 0.00 0.00 0.00 0.00 0.00 0.00 0.00 0.00 0.00 0.00 0.00 0.00 0.00 0.00 0.00 0.00 0.01 0.01 0.01 0.03 0.04 0.04 0.04 0.05 0.05 0.04 0.04 0.03 0.03 0.04 0.04 0.03 0.03 0.03 0.03 0.03
0.01 0.00 0.01 0.01 0.01 0.01 0.01 0.00 0.00 0.00 0.00 0.00 0.00 0.00 0.00 0.00 0.00 0.00 0.00 0.00 0.00 0.00 0.00 0.00 0.00 0.00 0.00 0.00 0.00 0.00 0.00 0.01 0.01 0.02 0.03 0.04 0.05 0.06 0.05 0.04 0.04 0.05 0.05 0.05 0.04 0.04 0.04 0.04 0.03
0.00 0.00 0.00 0.00 0.00 0.00 0.01 0.01 0.00 0.00 0.00 0.00 0.00 0.00 0.00 0.00 0.00 0.00 0.00 0.00 0.00 0.00 0.00 0.00 0.00 0.00 0.00 0.00 0.00 0.00 0.00 0.00 0.00 0.00 0.00 0.01 0.03 0.04 0.05 0.05 0.06 0.07 0.06 0.05 0.05 0.05 0.05 0.05 0.05
0.00 0.00 0.00 0.00 0.00 0.00 0.00 0.00 0.00 0.00 0.00 0.00 0.00 0.00 0.00 0.00 0.00 0.00 0.00 0.00 0.00 0.00 0.00 0.00 0.00 0.00 0.00 0.00 0.00 0.00 0.00 0.00 0.00 0.00 0.00 0.00 0.01 0.01 0.02 0.04 0.05 0.07 0.10 0.12 0.10 0.09 0.09 0.08 0.08
0.00 0.00 0.00 0.00 0.00 0.00 0.00 0.00 0.00 0.00 0.00 0.00 0.00 0.00 0.00 0.00 0.00 0.00 0.00 0.00 0.00 0.00 0.00 0.00 0.00 0.00 0.00 0.00 0.00 0.00 0.00 0.00 0.00 0.00 0.00 0.00 0.00 0.00 0.00 0.01 0.02 0.03 0.04 0.07 0.08 0.08 0.08 0.08 0.07
0.00 0.00 0.00 0.00 0.00 0.00 0.00 0.00 0.00 0.00 0.00 0.00 0.00 0.00 0.00 0.00 0.00 0.00 0.00 0.00 0.00 0.00 0.00 0.00 0.00 0.00 0.00 0.00 0.00 0.00 0.00 0.00 0.00 0.00 0.00 0.00 0.00 0.00 0.00 0.00 0.01 0.01 0.01 0.02 0.02 0.02 0.03 0.05 0.05
0.00 0.00 0.00 0.00 0.00 0.00 0.00 0.00 0.00 0.00 0.00 0.00 0.00 0.00 0.00 0.00 0.00 0.00 0.00 0.00 0.00 0.00 0.00 0.00 0.00 0.00 0.00 0.00 0.00 0.00 0.00 0.00 0.00 0.00 0.00 0.00 0.00 0.00 0.00 0.00 0.00 0.00 0.01 0.01 0.01 0.01 0.02 0.03 0.04
0.00 0.00 0.00 0.00 0.00 0.00 0.00 0.00 0.00 0.00 0.00 0.00 0.00 0.00 0.00 0.00 0.00 0.00 0.00 0.00 0.00 0.00 0.00 0.00 0.00 0.00 0.00 0.00 0.00 0.00 0.00 0.00 0.00 0.00 0.00 0.00 0.00 0.00 0.00 0.00 0.00 0.00 0.01 0.01 0.01 0.01 0.01 0.02 0.03
0.00 0.00 0.00 0.00 0.00 0.00 0.00 0.00 0.00 0.00 0.00 0.00 0.00 0.00 0.00 0.00 0.00 0.00 0.00 0.00 0.00 0.00 0.00 0.00 0.00 0.00 0.00 0.00 0.00 0.00 0.00 0.00 0.00 0.00 0.00 0.00 0.00 0.00 0.00 0.00 0.00 0.00 0.01 0.02 0.02 0.03 0.04 0.03 0.03
0.00 0.00 0.00 0.00 0.00 0.00 0.00 0.00 0.00 0.00 0.00 0.00 0.00 0.00 0.00 0.00 0.00 0.00 0.00 0.00 0.00 0.00 0.00 0.00 0.00 0.00 0.00 0.00 0.00 0.00 0.00 0.00 0.00 0.00 0.00 0.00 0.00 0.00 0.00 0.00 0.01 0.01 0.01 0.02 0.03 0.04 0.04 0.04 0.04
0.00 0.00 0.00 0.00 0.00 0.00 0.00 0.00 0.00 0.00 0.00 0.00 0.00 0.00 0.00 0.00 0.00 0.00 0.00 0.00 0.00 0.00 0.00 0.00 0.00 0.00 0.00 0.00 0.00 0.00 0.00 0.00 0.00 0.00 0.00 0.00 0.00 0.00 0.00 0.00 0.01 0.01 0.01 0.02 0.02 0.03 0.04 0.04 0.04
0.00 0.00 0.00 0.00 0.00 0.00 0.00 0.00 0.00 0.00 0.00 0.00 0.00 0.00 0.00 0.00 0.00 0.00 0.00 0.00 0.00 0.00 0.00 0.00 0.00 0.00 0.00 0.00 0.00 0.00 0.00 0.00 0.00 0.00 0.00 0.00 0.00 0.00 0.00 0.00 0.01 0.01 0.01 0.01 0.02 0.02 0.02 0.03 0.04
0.00 0.00 0.00 0.00 0.00 0.00 0.00 0.00 0.00 0.00 0.00 0.00 0.00 0.00 0.00 0.00 0.00 0.00 0.00 0.00 0.00 0.00 0.00 0.00 0.00 0.00 0.00 0.00 0.00 0.00 0.00 0.00 0.00 0.00 0.00 0.00 0.00 0.00 0.00 0.00 0.00 0.01 0.01 0.01 0.01 0.01 0.01 0.02 0.03
0.00 0.00 0.00 0.01 0.01 0.00 0.00 0.00 0.00 0.00 0.00 0.00 0.00 0.00 0.00 0.00 0.00 0.00 0.00 0.00 0.00 0.00 0.00 0.00 0.00 0.00 0.00 0.00 0.00 0.00 0.00 0.00 0.00 0.00 0.00 0.00 0.00 0.00 0.00 0.00 0.00 0.01 0.01 0.00 0.01 0.01 0.01 0.01 0.01
MSLP
1014.86 1014.89 1015.01 1015.17 1015.34 1015.48 1015.54 1015.50 1015.40 1015.28 1015.21 1015.25 1015.46 1015.83 1016.32 1016.86 1017.35 1017.69 1017.83 1017.76 1017.49 1017.12 1016.74 1016.44 1016.27 1016.26 1016.38 1016.56 1016.75 1016.89 1016.96 1016.94 1016.89 1016.84 1016.83 1016.88 1016.99 1017.13 1017.26 1017.32 1017.31 1017.22 1017.08 1016.92 1016.79 1016.72 1016.73 1016.80 1016.89
1014.81 1014.84 1014.94 1015.07 1015.21 1015.32 1015.38 1015.38 1015.33 1015.30 1015.34 1015.49 1015.80 1016.25 1016.80 1017.37 1017.85 1018.17 1018.27 1018.15 1017.84 1017.43 1017.00 1016.66 1016.45 1016.40 1016.49 1016.65 1016.83 1016.97 1017.04 1017.05 1017.03 1017.00 1017.00 1017.06 1017.16 1017.26 1017.35 1017.38 1017.34 1017.23 1017.08 1016.93 1016.83 1016.79 1016.82 1016.91 1017.01
1014.73 1014.74 1014.80 1014.90 1015.00 1015.10 1015.17 1015.22 1015.26 1015.35 1015.51 1015.80 1016.22 1016.75 1017.35 1017.93 1018.40 1018.69 1018.75 1018.59 1018.24 1017.80 1017.35 1016.98 1016.74 1016.65 1016.70 1016.82 1016.97 1017.09 1017.16 1017.18 1017.16 1017.15 1017.16 1017.20 1017.27 1017.34 1017.39 1017.38 1017.30 1017.18 1017.04 1016.91 1016.84 1016.84 1016.90 1017.00 1017.11
1014.62 1014.61 1014.63 1014.69 1014.76 1014.85 1014.95 1015.06 1015.21 1015.42 1015.72 1016.13 1016.65 1017.25 1017.88 1018.46 1018.91 1019.16 1019.20 1019.01 1018.66 1018.22 1017.77 1017.39 1017.14 1017.02 1017.02 1017.09 1017.19 1017.27 1017.31 1017.31 1017.29 1017.26 1017.26 1017.28 1017.31 1017.35 1017.35 1017.31 1017.22 1017.09 1016.97 1016.87 1016.83 1016.86 1016.95 1017.07 1017.18
1014.50 1014.47 1014.46 1014.48 1014.53 1014.63 1014.76 1014.95 1015.19 1015.52 1015.95 1016.47 1017.06 1017.71 1018.34 1018.90 1019.32 1019.54 1019.56 1019.38 1019.05 1018.64 1018.23 1017.87 1017.62 1017.48 1017.44 1017.45 1017.49 1017.51 1017.49 1017.45 1017.39 1017.33 1017.29 1017.28 1017.29 1017.28 1017.26 1017.20 1017.10 1016.98 1016.88 1016.81 1016.81 1016.86 1016.97 1017.09 1017.19
1014.40 1014.36 1014.34 1014.34 1014.38 1014.48 1014.66 1014.91 1015.25 1015.68 1016.20 1016.79 1017.43 1018.08 1018.69 1019.22 1019.59 1019.79 1019.80 1019.65 1019.38 1019.03 1018.68 1018.38 1018.15 1018.01 1017.92 1017.88 1017.83 1017.77 1017.68 1017.57 1017.45 1017.35 1017.28 1017.23 1017.20 1017.17 1017.13 1017.05 1016.96 1016.86 1016.78 1016.74 1016.76 1016.83 1016.93 1017.04 1017.12
1014.37 1014.33 1014.30 1014.30 1014.35 1014.48 1014.69 1015.00 1015.41 1015.92 1016.49 1017.11 1017.76 1018.38 1018.95 1019.42 1019.75 1019.92 1019.95 1019.84 1019.63 1019.38 1019.11 1018.88 1018.68 1018.54 1018.42 1018.31 1018.19 1018.04 1017.86 1017.68 1017.50 1017.34 1017.22 1017.14 1017.08 1017.03 1016.97 1016.90 1016.81 1016.73 1016.67 1016.64 1016.67 1016.73 1016.82 1016.90 1016.95
1014.41 1014.39 1014.38 1014.39 1014.47 1014.62 1014.88 1015.24 1015.69 1016.23 1016.83 1017.45 1018.07 1018.64 1019.15 1019.56 1019.84 1020.00 1020.03 1019.97 1019.84 1019.68 1019.50 1019.33 1019.18 1019.04 1018.89 1018.72 1018.52 1018.29 1018.03 1017.77 1017.52 1017.32 1017.16 1017.04 1016.95 1016.88 1016.81 1016.73 1016.65 1016.58 1016.53 1016.50 1016.52 1016.56 1016.61 1016.65 1016.66
1014.54 1014.56 1014.58 1014.63 1014.74 1014.93 1015.22 1015.62 1016.10 1016.65 1017.24 1017.83 1018.40 1018.91 1019.35 1019.69 1019.93 1020.07 1020.12 1020.11 1020.04 1019.95 1019.85 1019.73 1019.60 1019.46 1019.28 1019.06 1018.79 1018.49 1018.17 1017.85 1017.56 1017.31 1017.10 1016.95 1016.84 1016.75 1016.66 1016.57 1016.49 1016.41 1016.34 1016.31 1016.29 1016.30 1016.30 1016.29 1016.25
1014.74 1014.81 1014.89 1014.99 1015.14 1015.38 1015.71 1016.12 1016.61 1017.15 1017.72 1018.27 1018.78 1019.23 1019.60 1019.88 1020.09 1020.21 1020.28 1020.29 1020.28 1020.23 1020.17 1020.08 1019.96 1019.79 1019.58 1019.31 1019.00 1018.64 1018.28 1017.92 1017.60 1017.32 1017.09 1016.91 1016.77 1016.64 1016.53 1016.42 1016.31 1016.21 1016.12 1016.05 1016.00 1015.95 1015.91 1015.85 1015.76
1014.99 1015.12 1015.26 1015.43 1015.64 1015.92 1016.28 1016.71 1017.20 1017.72 1018.25 1018.76 1019.21 1019.60 1019.92 1020.17 1020.34 1020.46 1020.53 1020.56 1020.56 1020.53 1020.47 1020.38 1020.24 1020.04 1019.79 1019.48 1019.13 1018.75 1018.37 1018.00 1017.66 1017.37 1017.13 1016.92 1016.74 1016.58 1016.43 1016.28 1016.13 1015.99 1015.86 1015.74 1015.65 1015.56 1015.46 1015.36 1015.23
1015.23 1015.44 1015.65 1015.89 1016.17 1016.50 1016.89 1017.34 1017.82 1018.32 1018.81 1019.27 1019.67 1020.02 1020.31 1020.53 1020.69 1020.80 1020.87 1020.91 1020.90 1020.86 1020.78 1020.65 1020.46 1020.22 1019.93 1019.59 1019.22 1018.83 1018.45 1018.09 1017.76 1017.47 1017.22 1016.99 1016.78 1016.58 1016.37 1016.17 1015.96 1015.77 1015.59 1015.43 1015.28 1015.15 1015.02 1014.87 1014.71
1015.44 1015.72 1016.02 1016.33 1016.68 1017.07 1017.49 1017.94 1018.41 1018.88 1019.33 1019.75 1020.12 1020.44 1020.71 1020.92 1021.09 1021.20 1021.28 1021.30 1021.28 1021.21 1021.08 1020.90 1020.65 1020.36 1020.02 1019.66 1019.28 1018.90 1018.54 1018.21 1017.90 1017.63 1017.37 1017.13 1016.89 1016.64 1016.37 1016.11 1015.84 1015.59 1015.36 1015.14 1014.96 1014.78 1014.61 1014.44 1014.26
1015.59 1015.94 1016.32 1016.72 1017.13 1017.56 1018.01 1018.46 1018.91 1019.35 1019.76 1020.14 1020.49 1020.79 1021.06 1021.28 1021.46 1021.59 1021.67 1021.69 1021.65 1021.55 1021.37 1021.13 1020.83 1020.48 1020.11 1019.73 1019.35 1018.99 1018.66 1018.36 1018.09 1017.84 1017.59 1017.34 1017.07 1016.78 1016.46 1016.14 1015.81 1015.50 1015.21 1014.95 1014.72 1014.51 1014.31 1014.12 1013.91
1015.69 1016.11 1016.57 1017.03 1017.50 1017.97 1018.43 1018.87 1019.29 1019.68 1020.05 1020.39 1020.71 1021.00 1021.27 1021.52 1021.72 1021.88 1021.98 1022.02 1021.97 1021.84 1021.63 1021.34 1021.00 1020.62 1020.22 1019.83 1019.46 1019.12 1018.82 1018.56 1018.32 1018.09 1017.86 1017.61 1017.33 1017.01 1016.66 1016.29 1015.91 1015.54 1015.20 1014.90 1014.62 1014.38 1014.14 1013.92 1013.68
1015.76 1016.25 1016.76 1017.28 1017.79 1018.27 1018.72 1019.14 1019.51 1019.85 1020.16 1020.46 1020.74 1021.03 1021.30 1021.57 1021.81 1022.02 1022.16 1022.22 1022.19 1022.06 1021.84 1021.54 1021.18 1020.79 1020.38 1019.98 1019.62 1019.30 1019.03 1018.79 1018.59 1018.39 1018.18 1017.94 1017.66 1017.34 1016.97 1016.57 1016.16 1015.75 1015.36 1015.00 1014.68 1014.39 1014.12 1013.85 1013.58
1015.87 1016.38 1016.93 1017.48 1018.00 1018.48 1018.90 1019.27 1019.58 1019.85 1020.09 1020.33 1020.57 1020.84 1021.12 1021.42 1021.71 1021.96 1022.16 1022.27 1022.29 1022.20 1022.00 1021.72 1021.37 1020.98 1020.58 1020.20 1019.84 1019.54 1019.28 1019.07 1018.89 1018.72 1018.54 1018.32 1018.06 1017.75 1017.39 1016.98 1016.54 1016.11 1015.68 1015.28 1014.91 1014.57 1014.25 1013.93 1013.60
1016.04 1016.56 1017.12 1017.66 1018.16 1018.60 1018.97 1019.26 1019.49 1019.68 1019.84 1020.01 1020.21 1020.46 1020.75 1021.07 1021.41 1021.72 1021.99 1022.18 1022.26 1022.24 1022.11 1021.88 1021.57 1021.21 1020.83 1020.46 1020.12 1019.83 1019.58 1019.37 1019.21 1019.06 1018.91 1018.73 1018.50 1018.22 1017.88 1017.48 1017.05 1016.60 1016.14 1015.70 1015.28 1014.88 1014.50 1014.12 1013.73
1016.32 1016.82 1017.35 1017.85 1018.29 1018.67 1018.95 1019.15 1019.28 1019.37 1019.45 1019.55 1019.71 1019.94 1020.23 1020.58 1020.97 1021.35 1021.70 1021.97 1022.15 1022.21 1022.16 1022.01 1021.76 1021.46 1021.12 1020.77 1020.44 1020.15 1019.90 1019.69 1019.53 1019.40 1019.27 1019.12 1018.94 1018.71 1018.41 1018.04 1017.62 1017.16 1016.68 1016.21 1015.74 1015.30 1014.86 1014.42 1013.96
1016.72 1017.18 1017.64 1018.06 1018.42 1018.70 1018.87 1018.96 1018.98 1018.97 1018.96 1019.01 1019.12 1019.33 1019.64 1020.02 1020.46 1020.91 1021.33 1021.70 1021.97 1022.13 1022.18 1022.12 1021.96 1021.72 1021.42 1021.11 1020.79 1020.49 1020.23 1020.01 1019.85 1019.72 1019.61 1019.49 1019.36 1019.17 1018.92 1018.59 1018.19 1017.74 1017.25 1016.75 1016.25 1015.77 1015.29 1014.80 1014.30
1017.25 1017.63 1018.00 1018.32 1018.56 1018.71 1018.76 1018.73 1018.64 1018.53 1018.45 1018.44 1018.52 1018.73 1019.05 1019.46 1019.95 1020.46 1020.96 1021.40 1021.77 1022.03 1022.17 1022.20 1022.13 1021.96 1021.72 1021.44 1021.14 1020.84 1020.57 1020.33 1020.15 1020.01 1019.91 1019.82 1019.71 1019.56 1019.35 1019.06 1018.70 1018.26 1017.78 1017.27 1016.76 1016.25 1015.75 1015.24 1014.71
1017.86 1018.15 1018.40 1018.60 1018.71 1018.72 1018.64 1018.48 1018.29 1018.09 1017.95 1017.90 1017.97 1018.18 1018.52 1018.97 1019.50 1020.06 1020.62 1021.13 1021.57 1021.91 1022.14 1022.26 1022.27 1022.18 1022.00 1021.76 1021.48 1021.19 1020.91 1020.65 1020.45 1020.30 1020.18 1020.09 1020.00 1019.87 1019.69 1019.43 1019.09 1018.68 1018.21 1017.71 1017.20 1016.70 1016.21 1015.72 1015.19
1018.51 1018.70 1018.84 1018.91 1018.88 1018.76 1018.55 1018.27 1017.98 1017.71 1017.52 1017.45 1017.52 1017.73 1018.10 1018.57 1019.13 1019.73 1020.32 1020.88 1021.37 1021.77 1022.07 1022.27 1022.36 1022.34 1022.24 1022.05 1021.81 1021.53 1021.25 1020.98 1020.75 1020.57 1020.44 1020.33 1020.23 1020.10 1019.93 1019.68 1019.36 1018.97 1018.52 1018.04 1017.57 1017.10 1016.64 1016.18 1015.70
1019.14 1019.24 1019.28 1019.22 1019.07 1018.82 1018.49 1018.11 1017.73 1017.40 1017.18 1017.09 1017.16 1017.39 1017.77 1018.27 1018.84 1019.45 1020.06 1020.63 1021.14 1021.58 1021.93 1022.20 1022.36 1022.42 1022.39 1022.28 1022.09 1021.85 1021.58 1021.32 1021.07 1020.86 1020.69 1020.55 1020.42 1020.27 1020.09 1019.84 1019.52 1019.15 1018.72 1018.28 1017.84 1017.42 1017.02 1016.62 1016.21
1019.69 1019.72 1019.67 1019.52 1019.26 1018.90 1018.47 1018.01 1017.56 1017.19 1016.93 1016.83 1016.90 1017.14 1017.52 1018.01 1018.58 1019.18 1019.77 1020.34 1020.85 1021.31 1021.70 1022.01 1022.25 1022.40 1022.45 1022.42 1022.31 1022.13 1021.90 1021.64 1021.39 1021.16 1020.96 1020.77 1020.60 1020.42 1020.21 1019.94 1019.62 1019.25 1018.85 1018.44 1018.05 1017.68 1017.34 1017.02 1016.68
1020.13 1020.12 1020.00 1019.78 1019.44 1019.00 1018.49 1017.96 1017.46 1017.04 1016.77 1016.65 1016.71 1016.93 1017.30 1017.76 1018.30 1018.86 1019.42 1019.96 1020.46 1020.92 1021.33 1021.69 1021.99 1022.23 1022.38 1022.45 1022.43 1022.33 1022.16 1021.95 1021.71 1021.47 1021.23 1021.01 1020.80 1020.57 1020.32 1020.03 1019.70 1019.33 1018.95 1018.57 1018.21 1017.89 1017.61 1017.36 1017.08
1020.42 1020.39 1020.24 1019.96 1019.57 1019.08 1018.52 1017.94 1017.40 1016.95 1016.64 1016.50 1016.53 1016.73 1017.05 1017.48 1017.96 1018.46 1018.97 1019.46 1019.93 1020.37 1020.80 1021.20 1021.57 1021.90 1022.16 1022.34 1022.43 1022.43 1022.34 1022.18 1021.98 1021.75 1021.50 1021.26 1021.01 1020.75 1020.46 1020.15 1019.81 1019.44 1019.07 1018.71 1018.38 1018.10 1017.86 1017.64 1017.43
1020.56 1020.51 1020.34 1020.05 1019.63 1019.10 1018.51 1017.90 1017.34 1016.87 1016.53 1016.36 1016.35 1016.49 1016.76 1017.12 1017.53 1017.96 1018.40 1018.83 1019.26 1019.69 1020.12 1020.56 1020.99 1021.40 1021.76 1022.06 1022.26 1022.37 1022.38 1022.30 1022.15 1021.95 1021.72 1021.48 1021.21 1020.93 1020.64 1020.31 1019.96 1019.60 1019.24 1018.89 1018.58 1018.31 1018.08 1017.89 1017.71
1020.53 1020.47 1020.29 1019.99 1019.56 1019.02 1018.43 1017.81 1017.24 1016.75 1016.39 1016.18 1016.12 1016.21 1016.40 1016.68 1017.01 1017.37 1017.73 1018.10 1018.49 1018.89 1019.33 1019.79 1020.27 1020.75 1021.20 1021.59 1021.90 1022.12 1022.23 1022.24 1022.17 1022.03 1021.84 1021.62 1021.37 1021.11 1020.82 1020.50 1020.17 1019.81 1019.46 1019.12 1018.81 1018.55 1018.32 1018.13 1017.95
1020.37 1020.28 1020.08 1019.77 1019.34 1018.81 1018.22 1017.62 1017.05 1016.57 1016.19 1015.96 1015.86 1015.89 1016.01 1016.22 1016.46 1016.74 1017.03 1017.34 1017.68 1018.05 1018.48 1018.95 1019.46 1019.98 1020.50 1020.97 1021.37 1021.68 1021.88 1021.99 1022.00 1021.93 1021.81 1021.65 1021.45 1021.22 1020.97 1020.69 1020.38 1020.05 1019.72 1019.39 1019.08 1018.81 1018.57 1018.36 1018.16
Thickness
5673 5679 5686 5689 5687 5688 5698 5707 5710 5710 5714 5720 5725 5730 5732 5729 5729 5721 5723 5731 5733 5736 5737 5737 5736 5737 5737 5737 5737 5738 5738 5737 5737 5737 5737 5736 5736 5736 5735 5734 5734 5733 5733 5732 5732 5731 5731 5730 5729
5664 5670 5675 5678 5679 5685 5694 5703 5702 5708 5712 5712 5715 5719 5720 5717 5719 5719 5721 5724 5728 5731 5733 5733 5732 5732 5733 5733 5734 5734 5734 5734 5734 5734 5733 5733 5733 5733 5732 5732 5731 5731 5730 5729 5729 5728 5727 5727 5726
5654 5660 5664 5668 5674 5689 5694 5697 5700 5701 5704 5706 5706 5710 5711 5708 5711 5713 5716 5720 5724 5726 5728 5728 5727 5728 5728 5729 5729 5730 5730 5730 5730 5730 5730 5730 5730 5730 5730 5729 5728 5728 5727 5726 5725 5725 5724 5723 5722
5644 5647 5653 5660 5669 5679 5686 5689 5692 5692 5694 5698 5703 5699 5699 5700 5703 5707 5711 5716 5719 5721 5722 5722 5722 5723 5723 5724 5725 5725 5726 5726 5726 5726 5726 5726 5727 5726 5726 5726 5725 5725 5724 5723 5722 5721 5721 5720 5719
5633 5639 5641 5650 5660 5667 5674 5680 5685 5688 5689 5691 5696 5693 5690 5692 5696 5700 5705 5709 5713 5714 5715 5716 5716 5717 5718 5719 5720 5720 5721 5722 5722 5722 5723 5723 5723 5723 5722 5722 5722 5721 5720 5719 5719 5718 5717 5716 5716
5621 5630 5637 5645 5651 5656 5664 5670 5677 5681 5681 5683 5688 5687 5682 5685 5689 5693 5698 5702 5705 5707 5708 5709 5710 5711 5712 5713 5714 5715 5716 5717 5717 5718 5718 5719 5719 5719 5718 5718 5718 5718 5717 5716 5715 5715 5714 5713 5712
5614 5624 5634 5643 5642 5647 5654 5662 5669 5673 5675 5676 5682 5680 5676 5679 5682 5687 5691 5695 5697 5699 5701 5703 5704 5705 5706 5707 5708 5709 5711 5712 5712 5713 5713 5714 5714 5714 5714 5714 5714 5713 5713 5712 5712 5711 5710 5709 5708
5608 5617 5622 5632 5637 5641 5647 5652 5657 5665 5664 5666 5673 5675 5672 5673 5676 5680 5684 5687 5690 5691 5693 5695 5697 5699 5701 5702 5702 5703 5705 5706 5707 5708 5709 5709 5710 5710 5710 5709 5709 5709 5708 5708 5707 5707 5706 5705 5705
5600 5609 5616 5625 5634 5635 5640 5644 5645 5651 5656 5656 5660 5665 5666 5666 5670 5673 5676 5679 5681 5683 5685 5687 5689 5692 5694 5696 5697 5698 5699 5700 5702 5703 5703 5704 5706 5706 5706 5705 5704 5704 5704 5703 5703 5702 5702 5701 5701
5592 5601 5609 5616 5627 5630 5633 5639 5641 5645 5647 5647 5649 5652 5656 5659 5663 5665 5668 5670 5672 5674 5676 5679 5681 5684 5686 5689 5691 5692 5694 5695 5696 5698 5699 5700 5701 5701 5701 5700 5699 5699 5699 5699 5698 5698 5697 5697 5698
5583 5591 5597 5604 5613 5622 5625 5627 5634 5641 5639 5643 5645 5645 5648 5651 5654 5657 5659 5661 5663 5665 5667 5670 5673 5676 5679 5681 5684 5685 5687 5688 5690 5691 5692 5693 5694 5695 5695 5695 5695 5695 5695 5695 5695 5694 5695 5695 5695
5576 5579 5590 5596 5602 5611 5617 5621 5623 5628 5631 5634 5637 5639 5641 5644 5646 5648 5650 5652 5655 5657 5659 5662 5664 5668 5670 5673 5676 5678 5680 5681 5682 5683 5685 5686 5688 5688 5689 5690 5690 5690 5691 5691 5690 5690 5691 5691 5691
5573 5574 5581 5587 5594 5601 5608 5612 5615 5614 5619 5624 5626 5629 5633 5636 5637 5639 5641 5644 5647 5649 5651 5654 5657 5660 5662 5665 5668 5670 5671 5673 5674 5675 5676 5678 5680 5681 5683 5683 5683 5684 5684 5685 5685 5685 5686 5686 5686
5567 5572 5576 5582 5589 5594 5600 5603 5607 5606 5611 5615 5618 5621 5625 5627 5630 5632 5634 5636 5639 5641 5643 5646 5649 5652 5655 5658 5660 5662 5663 5665 5667 5668 5669 5670 5672 5673 5675 5676 5677 5677 5678 5678 5679 5679 5679 5680 5680
5565 5570 5573 5576 5583 5587 5596 5595 5596 5601 5606 5609 5612 5615 5616 5619 5622 5624 5626 5628 5631 5633 5635 5638 5641 5643 5646 5649 5652 5654 5655 5658 5659 5661 5662 5663 5664 5666 5667 5668 5669 5670 5670 5671 5671 5672 5672 5673 5673
5563 5570 5571 5569 5576 5582 5591 5590 5590 5595 5600 5605 5608 5610 5611 5612 5615 5617 5619 5621 5623 5625 5627 5630 5632 5635 5638 5640 5643 5646 5648 5650 5651 5653 5654 5655 5656 5657 5659 5660 5661 5662 5662 5662 5663 5664 5664 5665 5665
5563 5568 5569 5567 5571 5579 5587 5587 5587 5591 5596 5600 5604 5606 5608 5609 5610 5611 5612 5614 5615 5618 5620 5622 5624 5627 5629 5632 5634 5637 5639 5641 5643 5644 5645 5646 5648 5649 5650 5652 5653 5653 5654 5654 5655 5655 5655 5656 5656
5562 5567 5566 5567 5567 5575 5580 5583 5585 5588 5592 5597 5600 5602 5604 5605 5606 5605 5605 5606 5608 5610 5612 5615 5617 5619 5621 5624 5627 5630 5632 5633 5634 5635 5636 5637 5639 5640 5642 5643 5644 5645 5645 5645 5646 5646 5646 5646 5647
5563 5565 5564 5561 5563 5570 5575 5578 5583 5586 5588 5592 5596 5599 5600 5601 5601 5600 5600 5600 5602 5603 5605 5607 5609 5611 5613 5616 5619 5621 5623 5624 5626 5626 5627 5628 5630 5631 5632 5634 5635 5635 5636 5636 5636 5636 5637 5637 5637
5560 5561 5559 5557 5560 5567 5571 5576 5582 5585 5587 5590 5593 5596 5597 5597 5597 5595 5596 5596 5596 5597 5598 5600 5601 5603 5604 5606 5608 5610 5612 5615 5616 5616 5617 5618 5619 5621 5622 5623 5624 5625 5625 5626 5626 5625 5626 5627 5627
5553 5557 5557 5558 5558 5562 5568 5580 5583 5583 5583 5585 5588 5591 5593 5593 5594 5593 5592 5592 5592 5592 5591 5592 5593 5594 5595 5597 5599 5601 5604 5606 5608 5608 5608 5608 5609 5611 5611 5612 5614 5614 5615 5614 5614 5614 5614 5615 5616
5548 5545 5550 5553 5561 5565 5564 5576 5589 5586 5584 5585 5587 5588 5590 5589 5589 5588 5587 5587 5586 5585 5584 5585 5586 5586 5587 5588 5590 5592 5594 5596 5596 5596 5597 5599 5599 5600 5601 5601 5603 5603 5604 5604 5603 5603 5603 5604 5605
5542 5543 5547 5550 5555 5558 5561 5566 5589 5582 5585 5590 5590 5588 5587 5586 5584 5583 5581 5580 5580 5578 5577 5578 5578 5579 5579 5580 5581 5582 5584 5585 5585 5586 5588 5589 5589 5590 5590 5591 5592 5592 5592 5592 5592 5593 5593 5594 5594
5539 5543 5546 5548 5553 5555 5558 5560 5580 5586 5587 5590 5589 5587 5584 5581 5579 5577 5576 5574 5573 5572 5571 5570 5571 5571 5571 5572 5572 5573 5574 5575 5576 5577 5578 5579 5579 5580 5580 5580 5581 5581 5581 5582 5582 5582 5583 5583 5584
5541 5547 5549 5551 5554 5560 5548 5551 5573 5585 5583 5583 5583 5582 5580 5577 5575 5573 5571 5570 5568 5567 5565 5564 5564 5565 5564 5564 5565 5565 5565 5566 5567 5568 5568 5568 5569 5570 5570 5570 5570 5571 5571 5571 5571 5572 5573 5573 5573
5539 5543 5547 5552 5557 5562 5545 5554 5577 5578 5575 5574 5574 5574 5573 5572 5570 5569 5567 5565 5564 5562 5560 5559 5559 5558 5558 5557 5557 5557 5557 5557 5557 5557 5557 5558 5558 5558 5558 5559 5560 5560 5561 5561 5561 5562 5562 5562 5562
5538 5539 5537 5540 5537 5545 5561 5562 5573 5573 5571 5570 5571 5569 5569 5568 5566 5564 5562 5560 5559 5558 5556 5554 5553 5552 5551 5551 5550 5549 5548 5548 5548 5548 5548 5548 5548 5548 5549 5549 5550 5550 5551 5551 5551 5551 5551 5551 5550
5532 5534 5534 5537 5541 5553 5561 5562 5570 5572 5571 5570 5569 5568 5566 5564 5562 5560 5558 5556 5554 5553 5550 5548 5547 5546 5545 5544 5543 5542 5541 5540 5540 5540 5539 5539 5539 5539 5540 5540 5541 5541 5541 5541 5541 5541 5540 5540 5538
5529 5529 5531 5534 5535 5543 5556 5570 5571 5568 5567 5567 5567 5565 5564 5561 5559 5558 5556 5553 5550 5548 5546 5543 5541 5540 5538 5537 5536 5535 5534 5533 5533 5532 5532 5530 5530 5530 5530 5531 5531 5531 5531 5530 5530 5529 5529 5528 5527
5530 5532 5532 5534 5533 5531 5541 5561 5567 5562 5561 5561 5562 5561 5560 5558 5556 5554 5552 5549 5547 5544 5542 5540 5537 5535 5533 5531 5529 5529 5527 5526 5526 5525 5524 5523 5522 5522 5521 5521 5521 5521 5520 5519 5518 5518 5517 5516 5515